| time (UTC) | temp C | wind direction | speed KPH | gust KPH | rain 1hr cm | rain 24hr cm | rain mn cm | humidity % | barometer mb |
| 20260505153028 | 12 | 0 | 0.0 | 8.0 | 0.00 | 0.00 | 0.00 | 84 | 1015.9 |
| 20260505151528 | 12 | 173 | 0.0 | 6.4 | 0.00 | 0.00 | 0.00 | 85 | 1015.8 |
| 20260505124530 | 12 | 0 | 3.2 | 9.7 | 0.00 | 0.00 | 0.00 | 86 | 1014.5 |
| 20260505123034 | 12 | 214 | 1.6 | 8.0 | 0.00 | 0.00 | 0.00 | 86 | 1014.5 |
| 20260505121530 | 12 | 195 | 1.6 | 8.0 | 0.00 | 0.00 | 0.00 | 86 | 1014.4 |
| 20260505120030 | 12 | 260 | 3.2 | 12.9 | 0.00 | 0.00 | 0.00 | 86 | 1014.3 |
| 20260505114529 | 12 | 210 | 1.6 | 8.0 | 0.00 | 0.00 | 0.00 | 87 | 1014.3 |
| 20260505113028 | 12 | 0 | 0.0 | 6.4 | 0.00 | 0.00 | 0.00 | 87 | 1014.3 |
| 20260505111528 | 12 | 0 | 0.0 | 3.2 | 0.00 | 0.00 | 0.00 | 87 | 1014.3 |
| 20260505101548 | 11 | 0 | 0.0 | 6.4 | 0.00 | 0.00 | 0.00 | 88 | 1013.9 |
| 20260505100053 | 11 | 0 | 0.0 | 4.8 | 0.00 | 0.00 | 0.00 | 88 | 1013.9 |
| 20260505094532 | 11 | 0 | 0.0 | 6.4 | 0.00 | 0.00 | 0.00 | 89 | 1013.6 |
| 20260505093028 | 11 | 0 | 1.6 | 9.7 | 0.00 | 0.00 | 0.00 | 89 | 1013.6 |
| 20260505091528 | 11 | 0 | 0.0 | 6.4 | 0.00 | 0.00 | 0.00 | 90 | 1013.6 |
| 20260505090029 | 10 | 0 | 0.0 | 0.0 | 0.00 | 0.00 | 0.00 | 89 | 1013.5 |
| 20260505084529 | 10 | 0 | 0.0 | 0.0 | 0.00 | 0.00 | 0.00 | 89 | 1013.4 |
| 20260505083028 | 10 | 0 | 0.0 | 0.0 | 0.00 | 0.00 | 0.00 | 89 | 1013.4 |
| 20260505081528 | 10 | 0 | 0.0 | 0.0 | 0.00 | 0.00 | 0.00 | 88 | 1013.5 |
| 20260505080028 | 10 | 0 | 0.0 | 0.0 | 0.00 | 0.00 | 0.00 | 88 | 1013.4 |
| 20260505074528 | 10 | 0 | 0.0 | 0.0 | 0.00 | 0.00 | 0.00 | 88 | 1013.3 |
| 20260505073036 | 10 | 0 | 0.0 | 0.0 | 0.00 | 0.00 | 0.00 | 87 | 1013.0 |
| 20260505071530 | 11 | 0 | 0.0 | 1.6 | 0.00 | 0.00 | 0.00 | 87 | 1012.9 |
| 20260505070030 | 11 | 0 | 0.0 | 1.6 | 0.00 | 0.00 | 0.00 | 86 | 1012.8 |
| 20260505064527 | 11 | 0 | 0.0 | 1.6 | 0.00 | 0.00 | 0.00 | 85 | 1012.8 |
| 20260505063030 | 12 | 0 | 0.0 | 0.0 | 0.00 | 0.00 | 0.00 | 85 | 1012.5 |
| 20260505061537 | 12 | 0 | 0.0 | 1.6 | 0.00 | 0.00 | 0.00 | 84 | 1012.3 |
| 20260505060030 | 12 | 0 | 0.0 | 0.0 | 0.00 | 0.00 | 0.00 | 83 | 1012.1 |
| 20260505054529 | 12 | 0 | 0.0 | 3.2 | 0.00 | 0.00 | 0.00 | 83 | 1012.0 |
| 20260505053038 | 13 | 293 | 0.0 | 3.2 | 0.00 | 0.00 | 0.00 | 82 | 1011.9 |
| 20260505051538 | 13 | 0 | 0.0 | 3.2 | 0.00 | 0.00 | 0.00 | 81 | 1011.9 |
| 20260505041528 | 15 | 284 | 1.6 | 9.7 | 0.00 | 0.00 | 0.00 | 76 | 1011.3 |
| 20260505040029 | 15 | 272 | 3.2 | 9.7 | 0.00 | 0.00 | 0.00 | 74 | 1011.2 |
| 20260505034527 | 16 | 0 | 3.2 | 11.3 | 0.00 | 0.00 | 0.00 | 72 | 1010.8 |
| 20260505033028 | 17 | 269 | 3.2 | 14.5 | 0.00 | 0.00 | 0.00 | 69 | 1010.5 |
| 20260505031537 | 17 | 285 | 4.8 | 11.3 | 0.00 | 0.00 | 0.00 | 67 | 1010.4 |
| 20260505030030 | 18 | 0 | 1.6 | 11.3 | 0.00 | 0.00 | 0.00 | 64 | 1010.2 |
| 20260505024527 | 20 | 277 | 3.2 | 11.3 | 0.00 | 0.00 | 0.00 | 61 | 1010.1 |
| 20260505023027 | 20 | 333 | 3.2 | 14.5 | 0.00 | 0.00 | 0.00 | 60 | 1010.0 |
| 20260505021532 | 20 | 268 | 3.2 | 9.7 | 0.00 | 0.00 | 0.00 | 59 | 1009.9 |
| 20260505020036 | 21 | 281 | 3.2 | 14.5 | 0.00 | 0.00 | 0.00 | 56 | 1009.7 |
| 20260505014528 | 22 | 274 | 3.2 | 11.3 | 0.00 | 0.00 | 0.00 | 53 | 1009.9 |
| 20260505013031 | 23 | 196 | 4.8 | 14.5 | 0.00 | 0.00 | 0.00 | 53 | 1009.8 |
| 20260505011535 | 23 | 308 | 4.8 | 14.5 | 0.00 | 0.00 | 0.00 | 51 | 1009.7 |
| 20260505010050 | 23 | 326 | 6.4 | 14.5 | 0.00 | 0.00 | 0.00 | 51 | 1009.7 |
| 20260505004530 | 24 | 263 | 3.2 | 17.7 | 0.00 | 0.00 | 0.00 | 52 | 1009.6 |
| 20260505003032 | 25 | 278 | 4.8 | 14.5 | 0.00 | 0.00 | 0.00 | 51 | 1009.6 |
| 20260505001528 | 25 | 0 | 3.2 | 17.7 | 0.00 | 0.00 | 0.00 | 51 | 1009.5 |
| 20260505000041 | 25 | 323 | 3.2 | 16.1 | 0.00 | 0.00 | 0.00 | 51 | 1009.5 |
| 20260504234529 | 25 | 271 | 4.8 | 16.1 | 0.00 | 0.00 | 0.00 | 51 | 1009.5 |
| 20260504233026 | 25 | 310 | 4.8 | 14.5 | 0.00 | 0.00 | 0.00 | 52 | 1009.6 |
| 20260504231527 | 26 | 343 | 3.2 | 14.5 | 0.00 | 0.00 | 0.00 | 54 | 1009.6 |
| 20260504230038 | 26 | 302 | 4.8 | 11.3 | 0.00 | 0.00 | 0.00 | 48 | 1009.6 |
| 20260504224529 | 26 | 222 | 3.2 | 9.7 | 0.00 | 0.00 | 0.00 | 41 | 1009.7 |
| 20260504223029 | 26 | 225 | 3.2 | 14.5 | 0.00 | 0.00 | 0.00 | 47 | 1009.8 |
| 20260504221539 | 26 | 232 | 1.6 | 8.0 | 0.00 | 0.00 | 0.00 | 43 | 1010.0 |
| 20260504220033 | 26 | 324 | 3.2 | 12.9 | 0.00 | 0.00 | 0.00 | 49 | 1010.1 |
| 20260504214528 | 26 | 201 | 3.2 | 14.5 | 0.00 | 0.00 | 0.00 | 49 | 1010.1 |
| 20260504213033 | 25 | 193 | 1.6 | 11.3 | 0.00 | 0.00 | 0.00 | 49 | 1010.2 |
| 20260504211533 | 25 | 228 | 6.4 | 14.5 | 0.00 | 0.00 | 0.00 | 47 | 1010.3 |
| 20260504210027 | 25 | 0 | 3.2 | 14.5 | 0.00 | 0.00 | 0.00 | 48 | 1010.6 |
| 20260504204531 | 25 | 209 | 3.2 | 12.9 | 0.00 | 0.00 | 0.00 | 50 | 1010.6 |
| 20260504203043 | 25 | 265 | 1.6 | 8.0 | 0.00 | 0.00 | 0.00 | 48 | 1010.8 |
| 20260504201530 | 24 | 324 | 1.6 | 9.7 | 0.00 | 0.00 | 0.00 | 48 | 1010.7 |
| 20260504200027 | 24 | 256 | 4.8 | 14.5 | 0.00 | 0.00 | 0.00 | 48 | 1010.7 |
| 20260504194534 | 24 | 215 | 3.2 | 11.3 | 0.00 | 0.00 | 0.00 | 51 | 1010.9 |
| 20260504193026 | 23 | 232 | 4.8 | 14.5 | 0.00 | 0.00 | 0.00 | 50 | 1010.8 |
| 20260504191536 | 23 | 185 | 3.2 | 12.9 | 0.00 | 0.00 | 0.00 | 51 | 1010.9 |
| 20260504190030 | 23 | 0 | 1.6 | 12.9 | 0.00 | 0.00 | 0.00 | 53 | 1011.2 |
| 20260504184530 | 23 | 248 | 3.2 | 9.7 | 0.00 | 0.00 | 0.00 | 54 | 1011.4 |
| 20260504183030 | 22 | 182 | 3.2 | 11.3 | 0.00 | 0.00 | 0.00 | 57 | 1011.4 |
| 20260504181526 | 22 | 237 | 4.8 | 14.5 | 0.00 | 0.00 | 0.00 | 55 | 1011.4 |
| 20260504180030 | 22 | 171 | 1.6 | 11.3 | 0.00 | 0.00 | 0.00 | 56 | 1011.3 |
| 20260504174528 | 21 | 178 | 3.2 | 11.3 | 0.00 | 0.00 | 0.00 | 58 | 1011.4 |
| 20260504173034 | 21 | 209 | 3.2 | 11.3 | 0.00 | 0.00 | 0.00 | 58 | 1011.3 |
| 20260504171532 | 21 | 286 | 3.2 | 9.7 | 0.00 | 0.00 | 0.00 | 55 | 1011.4 |